Flag for U.S.A. Weather past 2 weeks in Salem, Oregon, U.S.A.

Now
69 °F

Clear.


Feels Like: 69 °F
Forecast: 59 / 90 °F
Wind: 6 mph from North

Location: McNary Field

Current Time: Jul 29, 2014 at 11:20:48 PM

Latest Report: Jul 29, 2014 at 10:56 PM


Visibility: 10 mi

Pressure: 30.06 "Hg

Humidity: 63%

Dew point: 56 °F

Location of SalemLocation

Historic Weather in Salem — Graph

°F

Salem temperature yesterday

Maximum temperature yesterday: 95 °F (at 4:56 PM)
Minimum temperature yesterday: 59 °F (at 5:56 AM)
Average temperature yesterday: 77 °F

Past Weeks' High & Low Weather Summary

 TemperatureHumidityPressure
High96 °F (Jul 16, 4:56 PM)93% (Jul 23, 8:56 AM)30.28 "Hg (Jul 23, 8:56 AM)
Low53 °F (Jul 26, 5:56 AM)21% (Jul 16, 5:56 PM)29.88 "Hg (Jul 15, 6:56 PM)
Average71 °F58%30.04 "Hg
* Reported Jul 14 9:56 PM — Jul 29 9:56 PM, Salem, Weather by CustomWeather, © 2014

Note: Actual official high and low records may vary slightly from our data, if they occured in-between our weather recording intervals... More about our weather records

Advertising

Salem weather history for previous 24 hours

 ConditionsComfort  
Time TempWeatherWind HumidityBarometerVisibility
9:56 PM
Jul 29
73 °FClear.5 mph53%30.05 "Hg10 mi
8:56 PM77 °FSunny.6 mph48%30.03 "Hg10 mi
7:56 PM82 °FSunny.8 mph44%30.00 "Hg10 mi
6:56 PM88 °FSunny.10 mph38%29.99 "Hg10 mi
5:56 PM92 °FSunny.10 mph30%29.99 "Hg10 mi
4:56 PM94 °FSunny.10 mph22%29.99 "Hg10 mi
3:56 PM93 °FSunny.13 mph23%30.00 "Hg10 mi
2:56 PM91 °FSunny.9 mph26%30.03 "Hg10 mi
1:56 PM89 °FSunny.10 mph28%30.04 "Hg10 mi
12:56 PM85 °FSunny.9 mph34%30.06 "Hg10 mi
11:56 AM83 °FSunny.8 mph34%30.07 "Hg10 mi
10:56 AM78 °FSunny.5 mph39%30.09 "Hg10 mi
9:56 AM74 °FSunny.No wind48%30.09 "Hg10 mi
8:56 AM72 °FSunny.7 mph52%30.10 "Hg10 mi
7:56 AM69 °FSunny.5 mph59%30.09 "Hg10 mi
6:56 AM63 °FSunny.3 mph78%30.09 "Hg10 mi
5:56 AM60 °FClear.No wind80%30.08 "Hg10 mi
4:56 AM61 °FClear.No wind81%30.07 "Hg10 mi
3:56 AM64 °FClear.No wind75%30.05 "Hg10 mi
2:56 AM63 °FClear.No wind78%30.05 "Hg10 mi
1:56 AM66 °FClear.No wind68%30.04 "Hg10 mi
12:56 AM70 °FClear.6 mph61%30.03 "Hg10 mi
11:56 PM
Jul 28
72 °FClear.6 mph57%30.03 "Hg10 mi
Weather by CustomWeather, © 2014

See weather overviewHow to use our weather pages